Location: ??
(35.5970°N, 139.6180°E)
Time: 21:41:24
(UTC+00:00)

Daily predictions for brighter satellites

Satellite Brightness Start Highest point End
(mag) Time Altitude Azimuth Time Altitude Azimuth Time Altitude Azimuth
ATLAS CENTAUR Rocket 4.3 16:26:12 10° WSW 17:34:39 61° S 17:41:18 10° ESE
Cosmos 1605 Rocket 4.2 17:47:34 10° N 17:53:59 72° E 17:54:44 65° SE
ADEOS II 4.5 17:53:12 10° N 17:53:41 12° NNW 17:53:41 12° NNW
IDEFIX/ARIANE 42P 3.7 17:55:20 10° N 17:58:24 36° N 17:58:24 36° N
Cosmos 2360 Rocket 3.0 18:04:05 39° SE 18:05:24 46° ESE 18:10:48 10° NE
Cosmos 1980 Rocket 4.3 18:18:26 13° NNW 18:18:26 13° NNW 18:19:35 10° NNW
SL-8 R/B 4.2 18:21:19 52° SE 18:21:19 52° SE 18:24:56 10° SE
SL-4 R/B 3.8 18:23:56 26° N 18:23:56 26° N 18:27:05 10° NNE
PSLV R/B 4.2 18:19:19 10° NNE 18:23:24 51° E 18:23:50 49° ESE
Cosmos 2263 Rocket 3.7 18:27:32 21° S 18:27:32 21° S 18:29:22 10° S
Cosmos 2322 Rocket 2.3 18:25:05 59° NW 18:25:05 59° NW 18:30:21 10° NNE
Cosmos 1727 Rocket 3.9 18:25:25 51° SSW 18:27:09 77° W 18:33:29 10° N
H-2A R/B 2.5 18:24:29 10° SSE 18:28:48 63° ENE 18:33:13 10° N
CZ-2C R/B 2.9 18:25:53 10° NNE 18:31:02 64° E 18:34:21 22° S
Meteor 1-11 Rocket 3.7 18:26:40 10° N 18:32:24 82° E 18:37:59 10° S
Meteor 1-27 Rocket 3.7 18:32:37 42° SSW 18:34:46 80° W 18:40:42 10° N
SL-16 R/B 2.9 18:37:10 37° NW 18:37:10 37° NW 18:41:53 10° N
USA 267 4.1 18:32:50 10° NNE 18:38:37 35° NNW 18:40:14 31° WNW
Cosmos 1898 Rocket 3.3 18:34:04 10° NNW 18:39:20 78° WSW 18:44:37 10° S
ADEOS Rocket 3.9 18:33:28 10° SSE 18:40:01 52° ENE 18:45:56 10° N
Yuri Rocket 4.5 18:40:08 24° S 18:40:19 24° SSE 18:44:10 10° ESE
Cosmos 2237 4.1 18:43:24 46° SW 18:45:06 71° WNW 18:50:49 10° NNE
Cosmos 858 Rocket 4.4 18:41:09 10° NNW 18:46:21 85° ENE 18:51:33 10° SSE
Cosmos 2219 Rocket 3.4 18:48:21 10° S 18:53:36 41° ESE 18:58:53 10° NE
Cosmos 841 Rocket 3.7 18:57:48 39° WSW 18:59:11 49° WNW 19:04:17 10° N
Cosmos 1937 Rocket 3.3 18:54:16 10° NNW 18:59:23 71° WSW 19:04:29 10° S
ATLAS 2AS CENTAUR R/B 3.2 18:54:08 10° NNW 19:01:26 62° NE 19:08:05 10° SE
Cosmos 2208 Rocket 4.0 18:59:09 31° SW 19:01:30 60° WNW 19:06:38 10° N
Cosmos 1484 Rocket 3.8 19:00:21 10° NNE 19:04:15 49° E 19:08:07 10° S
Cosmos 1814 Rocket 4.0 19:02:13 30° SW 19:04:38 57° WNW 19:09:49 10° N
Okean 1 3.7 19:04:15 10° S 19:08:14 66° E 19:12:16 10° NNE
Hubble Space Telescope 3.2 19:07:44 10° S 19:09:45 14° SSE 19:11:51 10° SE
Intercosmos 25 3.3 19:05:30 10° S 19:09:50 80° E 19:13:08 10° N
USA 32 4.2 19:05:14 10° NNW 19:10:15 47° W 19:15:15 10° SSW
USA 234 3.6 19:03:53 10° ESE 19:10:20 65° NE 19:16:47 10° NW
deb Chang Zheng 4 3.5 19:09:53 10° NNE 19:14:10 87° ESE 19:18:25 10° SSW
COSMOS 2428 3.4 19:09:08 10° S 19:14:40 55° ESE 19:20:15 10° NNE
Cosmos 2173 Rocket 4.0 19:09:56 10° NNW 19:16:14 69° W 19:22:33 10° S
Cosmos 1437 Rocket 2.5 19:12:56 11° SSW 19:16:35 73° W 19:20:25 10° N
Meteor 1-31 Rocket 3.4 19:13:12 10° NNE 19:17:00 56° E 19:20:47 10° S
Cosmos 1703 Rocket 4.3 19:14:48 10° S 19:19:00 53° E 19:23:14 10° NNE
Meteor 2-20 Rocket 4.4 19:15:08 10° S 19:21:17 88° W 19:27:26 10° N
Cosmos 540 Rocket 4.3 19:19:31 25° W 19:21:17 30° WNW 19:25:50 10° N
Gbstr 26 Del rocket 4.4 19:13:43 10° NW 19:21:27 56° SW 19:28:08 10° SSE
Okean 1-7 3.9 19:17:22 10° SSE 19:21:28 50° E 19:25:35 10° NNE
Cosmos 1908 Rocket 4.5 19:18:15 10° N 19:22:38 53° E 19:27:00 10° SSE
BREEZE-M DEB (TANK) 3.9 19:19:16 19° W 19:23:06 32° NNW 19:26:06 10° NE
Meteor 2-20 4.4 19:17:07 10° SSW 19:23:09 61° W 19:29:13 10° N
Cosmos 2333 Rocket 2.3 19:17:57 10° SSW 19:23:43 85° ESE 19:29:31 10° NNE
X-37B 0.6 19:22:56 32° WNW 19:24:11 62° SW 19:27:19 10° SE
SJ-6F 4.5 19:21:43 10° N 19:25:43 55° WNW 19:29:41 10° SSW
Cosmos 2322 3.7 19:23:20 10° SSW 19:28:57 66° WNW 19:34:35 10° NNE
Cosmos 1536 3.7 19:25:43 10° NNW 19:29:10 27° W 19:32:36 10° SSW
METEOR-M 4.3 19:23:57 10° NNE 19:29:19 78° ESE 19:34:39 10° S
CZ-4C R/B 4.4 19:23:52 10° NNW 19:30:46 39° NE 19:38:27 10° ESE
ADEOS 3.6 19:29:49 10° N 19:34:56 58° WNW 19:40:02 10° SSW
CZ-4B R/B 3.5 19:32:42 10° NNE 19:36:13 52° E 19:39:43 10° S
CZ-4B R/B 4.1 19:36:14 10° N 19:40:39 71° WNW 19:45:06 10° SSW
PKM 4.2 19:38:28 10° NW 19:41:54 74° NE 19:47:02 10° SE
FALCON 9 DEB 4.4 19:39:31 10° SSW 19:42:24 34° SE 19:45:16 10° ENE
ERS-2 3.2 19:42:28 10° SSW 19:45:26 24° W 19:48:26 10° NW
Cosmos 1733 Rocket 3.9 19:41:51 10° NNW 19:45:27 26° W 19:49:02 10° SSW
OAO 3 Rocket 4.0 19:41:07 11° SW 19:45:42 46° SSE 19:50:27 10° E
Cosmos 2016 Rocket 4.0 19:41:55 10° NNW 19:47:52 56° W 19:53:47 10° SSW
Cosmos 2242 Rocket 3.8 19:45:08 10° SSW 19:49:20 46° W 19:53:35 10° N
Cosmos 2360 Rocket 3.4 19:45:54 13° WSW 19:49:36 22° WNW 19:53:58 10° N
SKYMED 2 4.2 19:45:45 10° SSE 19:50:00 60° ENE 19:54:17 10° N
CZ-4B R/B 1.9 19:48:22 10° SSW 19:51:15 32° W 19:54:12 10° NNW
Meteor 1-19 Rocket 4.2 19:47:00 10° SSW 19:52:23 63° W 19:57:57 10° N
Meteor 1-18 Rocket 4.3 19:47:08 10° SSW 19:52:34 57° W 19:58:03 10° N
FENGYUN 3A 3.8 19:47:45 10° N 19:52:58 51° WNW 19:58:11 10° SSW
Cosmos 2061 Rocket 4.2 19:46:51 10° NNW 19:53:05 53° W 19:59:15 10° SSW
Delta 2 Rocket 4.2 19:51:48 10° SW 19:54:47 30° SSE 19:57:48 10° E
FALCON 9 DEB 3.6 19:53:14 10° SSW 19:56:17 52° SE 19:59:20 10° NE
Cosmos 2233 Rocket 4.1 19:51:41 10° N 19:57:51 88° E 20:04:00 10° S
Cosmos 1743 3.5 19:54:56 10° NNW 19:58:16 29° W 20:01:35 10° SSW
Cosmos 1544 3.4 19:57:28 10° NNW 20:00:51 40° W 20:04:12 10° SSW
Meteor PRIRODA 3.5 20:01:17 10° N 20:04:54 71° WNW 20:08:30 10° SSW
ALOS 3.0 20:01:27 10° N 20:05:37 33° WNW 20:09:47 10° SW
H-2A R/B 3.7 20:02:18 10° NNE 20:06:37 51° E 20:10:59 10° S
CZ-2C R/B 4.2 20:06:01 10° NNW 20:08:40 14° WNW 20:11:19 10° W
Cosmos 1725 Rocket 4.3 20:04:25 10° NNW 20:10:14 44° W 20:16:01 10° SSW
Cosmos 1844 Rocket 3.2 20:06:43 10° NW 20:11:54 38° WSW 20:17:05 10° S
